DW5247 Lemo FI current weather conditions

sailwx.info

Wind from 180 at 5 knots gusting 9

Air temperature -1.7° C
Dewpoint -7.2° C

Last reported at 2017-Mar-28 16:52 UTC.
Time now 2017-Mar-28 17:36 UTC

Location: N 62°41' E 029°49'.
View on Google Maps.

See reports from other nearby stations

  
Tides and Currents Weather Stations Pressure Air Temp Water Temp Dewpoint Dewpoint Depression Visibility Wind Speed Wind Dir Waves Ship Positions
date/time (UTC)wind fromknots sea level pressurealtimeterstation pressurevisibilityair tempwater tempwave heightnotes
2017-Mar-28 16:52 180 5 gusting 9 -1.7
2017-Mar-28 16:47 203 6 gusting 12 -1.7
2017-Mar-28 16:42 203 6 gusting 13 -1.7
2017-Mar-28 16:37 180 8 gusting 13 -1.7
2017-Mar-28 16:32 180 8 gusting 12 -1.7
2017-Mar-28 16:27 225 6 gusting 7 -1.1
2017-Mar-28 16:22 158 5 gusting 7 -1.1
2017-Mar-28 16:17 180 4 gusting 7 -1.1
2017-Mar-28 16:12 158 4 gusting 13 -1.1
2017-Mar-28 16:07 180 5 gusting 13 -1.1
2017-Mar-28 16:02 248 5 gusting 13 -0.6
2017-Mar-28 15:57 068 5 gusting 5 -0.6
2017-Mar-28 15:52 180 3 gusting 5 -0.6
2017-Mar-28 15:47 180 3 gusting 5 -0.0
2017-Mar-28 15:42 090 3 gusting 5 -0.0
2017-Mar-28 15:37 248 3 gusting 12 -0.0
2017-Mar-28 15:32 248 3 gusting 12 -0.0
2017-Mar-28 15:22 248 5 gusting 12 0.6
2017-Mar-28 15:17 248 5 gusting 13 0.6
2017-Mar-28 15:12 113 5 gusting 13 0.6
2017-Mar-28 15:07 225 4 gusting 6 0.6
2017-Mar-28 15:02 225 4 gusting 6 -0.0
2017-Mar-28 14:57 270 4 gusting 6 -0.0
2017-Mar-28 14:52 248 3 gusting 6 -0.0
2017-Mar-28 14:47 248 4 gusting 8 -0.0
2017-Mar-28 14:42 248 4 gusting 8 -0.0
2017-Mar-28 14:37 158 5 gusting 6 -0.0
2017-Mar-28 14:32 180 4 gusting 6 -0.0
2017-Mar-28 14:27 248 3 gusting 5 -0.0
2017-Mar-28 14:22 248 2 gusting 5 -0.0
2017-Mar-28 14:17 248 3 gusting 4 -0.0
2017-Mar-28 14:12 225 3 gusting 8 -0.0
2017-Mar-28 14:07 225 3 gusting 8 -0.0
2017-Mar-28 14:02 180 3 gusting 8 -0.0
2017-Mar-28 13:57 180 3 gusting 8 -0.0
2017-Mar-28 13:52 225 3 gusting 5 -0.0
2017-Mar-28 13:47 225 3 gusting 3 -0.0
2017-Mar-28 13:42 225 2 gusting 4 -0.0
2017-Mar-28 13:37 158 3 gusting 6 0.6
2017-Mar-28 13:32 248 3 gusting 6 0.6
2017-Mar-28 13:27 158 4 gusting 6 0.6
2017-Mar-28 13:22 203 4 gusting 9 0.6
2017-Mar-28 13:17 180 4 gusting 9 0.6
2017-Mar-28 13:12 225 4 gusting 9 0.6
2017-Mar-28 13:07 203 4 gusting 9 0.6
2017-Mar-28 13:02 225 4 gusting 9 0.6
2017-Mar-28 12:57 203 5 gusting 11 0.6
2017-Mar-28 12:52 180 6 gusting 11 0.6
2017-Mar-28 12:47 270 6 gusting 12 0.6
2017-Mar-28 12:42 248 6 gusting 12 1.1
2017-Mar-28 12:37 225 6 gusting 12 1.1
2017-Mar-28 12:32 203 6 gusting 13 0.6
2017-Mar-28 12:27 225 6 gusting 13 0.6
2017-Mar-28 12:22 225 6 gusting 16 0.6
2017-Mar-28 12:17 225 7 gusting 16 0.6
2017-Mar-28 12:12 248 6 gusting 16 0.6
2017-Mar-28 12:07 180 7 gusting 13 0.6
2017-Mar-28 12:02 248 6 gusting 13 0.6
2017-Mar-28 11:57 225 5 gusting 9 0.6
2017-Mar-28 11:52 180 6 gusting 9 0.6
2017-Mar-28 11:47 270 6 gusting 11 0.6
2017-Mar-28 11:42 203 6 gusting 13 0.6
2017-Mar-28 11:37 225 6 gusting 13 0.6
2017-Mar-28 11:32 225 6 gusting 13 0.6
2017-Mar-28 11:27 225 6 gusting 10 0.6
2017-Mar-28 11:22 203 6 gusting 10 0.6
2017-Mar-28 11:17 180 6 gusting 10 0.6
2017-Mar-28 11:12 225 6 gusting 10 0.6
2017-Mar-28 11:07 225 6 gusting 10 0.6
2017-Mar-28 11:02 248 6 gusting 12 0.6
2017-Mar-28 10:57 248 6 gusting 12 0.6
2017-Mar-28 10:52 248 6 gusting 12 0.6
2017-Mar-28 10:47 203 7 gusting 13 -0.0
2017-Mar-28 10:42 203 6 gusting 13 -0.0
2017-Mar-28 10:37 248 6 gusting 13 -0.0
2017-Mar-28 10:32 225 6 gusting 9 -0.0
2017-Mar-28 10:27 248 6 gusting 9 -0.0
2017-Mar-28 10:22 225 6 gusting 9 -0.0
2017-Mar-28 10:17 248 6 gusting 13 -0.0
2017-Mar-28 10:12 225 6 gusting 13 -0.0
2017-Mar-28 10:07 248 6 gusting 13 -0.0
2017-Mar-28 10:02 135 6 gusting 9 -0.0
2017-Mar-28 09:57 225 6 gusting 11 -0.0
2017-Mar-28 09:52 203 6 gusting 11 -0.0
2017-Mar-28 09:47 315 5 gusting 8 -0.0
2017-Mar-28 09:42 248 5 gusting 9 -0.0
2017-Mar-28 09:37 248 4 gusting 9 -0.6
2017-Mar-28 09:32 203 5 gusting 9 -0.6
2017-Mar-28 09:27 225 6 gusting 9 -0.6
2017-Mar-28 09:22 270 5 gusting 7 -0.0
2017-Mar-28 09:17 225 5 gusting 8 -0.0
2017-Mar-28 09:12 113 5 gusting 8 -0.0
2017-Mar-28 09:07 248 5 gusting 6 -0.0
2017-Mar-28 09:02 248 5 gusting 10 -0.0
2017-Mar-28 08:57 203 5 gusting 10 -0.0
2017-Mar-28 08:52 203 4 gusting 10 -0.0
2017-Mar-28 08:47 248 4 gusting 11 -0.0
2017-Mar-28 08:42 203 5 gusting 11 -0.0
2017-Mar-28 08:37 180 5 gusting 11 -0.0
2017-Mar-28 08:32 180 4 gusting 6 -0.0
2017-Mar-28 08:27 225 4 gusting 8 -0.0
2017-Mar-28 08:22 248 5 gusting 9 -0.0
2017-Mar-28 08:17 248 6 gusting 9 -0.0
2017-Mar-28 08:12 248 5 gusting 9 -0.0
2017-Mar-28 08:07 225 3 gusting 7 -0.0
2017-Mar-28 08:02 203 2 gusting 6 -0.0
2017-Mar-28 07:57 293 3 gusting 6 -0.0
2017-Mar-28 07:52 248 4 gusting 6 -0.6
2017-Mar-28 07:47 225 3 gusting 6 -0.6
2017-Mar-28 07:42 225 3 gusting 6 -0.6
2017-Mar-28 07:37 158 2 gusting 6 -0.6
2017-Mar-28 07:32 203 2 gusting 6 -0.6
2017-Mar-28 07:27 248 2 gusting 9 -0.6
2017-Mar-28 07:22 158 3 gusting 9 -1.1
2017-Mar-28 07:17 225 3 gusting 6 -1.1
2017-Mar-28 07:12 225 3 gusting 6 -1.1
2017-Mar-28 07:07 203 3 gusting 6 -1.1
2017-Mar-28 07:02 248 3 gusting 5 -1.1
2017-Mar-28 06:57 180 2 gusting 6 -1.1
2017-Mar-28 06:52 180 3 gusting 6 -1.1
2017-Mar-28 06:47 248 2 gusting 6 -1.1
2017-Mar-28 06:42 180 2 gusting 5 -1.7
2017-Mar-28 06:37 180 3 gusting 5 -1.7
2017-Mar-28 06:32 180 3 gusting 5 -1.7
2017-Mar-28 06:27 180 3 gusting 5 -1.7
2017-Mar-28 06:22 180 3 gusting 4 -1.7
2017-Mar-28 06:17 203 2 gusting 3 -1.7
2017-Mar-28 06:12 203 2 gusting 3 -1.7
2017-Mar-28 06:07 180 2 gusting 3 -2.2
2017-Mar-28 06:02 180 2 gusting 5 -2.2
2017-Mar-28 05:57 203 2 gusting 5 -2.2
2017-Mar-28 05:52 135 2 gusting 5 -2.2
2017-Mar-28 05:47 158 2 gusting 4 -2.8
2017-Mar-28 05:42 023 1 gusting 4 -2.8
2017-Mar-28 05:37 203 1 gusting 4 -2.8
2017-Mar-28 05:32 248 1 gusting 3 -2.8
2017-Mar-28 05:27 180 2 gusting 5 -3.3
2017-Mar-28 05:22 270 1 gusting 5 -3.3
2017-Mar-28 05:17 180 1 gusting 6 -3.3
2017-Mar-28 05:12 203 2 gusting 6 -3.3
2017-Mar-28 05:07 203 1 gusting 4 -3.9
2017-Mar-28 05:02 180 1 gusting 4 -3.9
2017-Mar-28 04:57 158 1 gusting 4 -3.9
2017-Mar-28 04:52 135 1 gusting 3 -3.9
2017-Mar-28 04:47 180 1 gusting 3 -3.9
2017-Mar-28 04:42 203 1 gusting 2 -3.9
2017-Mar-28 04:37 158 0 gusting 2 -4.4
2017-Mar-28 04:32 158 0 gusting 1 -4.4
2017-Mar-28 04:27 135 0 gusting 1 -4.4
2017-Mar-28 04:22 158 0 gusting 2 -4.4
2017-Mar-28 04:17 158 0 gusting 2 -4.4
2017-Mar-28 04:12 158 1 gusting 1 -4.4
2017-Mar-28 04:07 180 1 gusting 1 -4.4
2017-Mar-28 04:02 158 1 gusting 1 -4.4
2017-Mar-28 03:57 158 0 gusting 1 -4.4
2017-Mar-28 03:52 180 0 gusting 1 -4.4
2017-Mar-28 03:47 135 0 gusting 1 -4.4
2017-Mar-28 03:42 158 0 gusting 1 -4.4
2017-Mar-28 03:37 158 0 gusting 1 -4.4
2017-Mar-28 03:32 158 0 gusting 1 -4.4
2017-Mar-28 03:27 180 0 gusting 1 -4.4
2017-Mar-28 03:22 180 1 gusting 1 -4.4
2017-Mar-28 03:17 158 0 gusting 1 -4.4
2017-Mar-28 03:12 180 1 gusting 2 -4.4
2017-Mar-28 03:07 135 0 gusting 2 -5.0
2017-Mar-28 03:02 135 0 gusting 2 -5.0
2017-Mar-28 02:57 180 0 gusting 1 -5.0
2017-Mar-28 02:52 158 0 gusting 1 -5.0
2017-Mar-28 02:47 158 -5.0
2017-Mar-28 02:42 135 0 gusting 1 -5.0
2017-Mar-28 02:37 158 0 gusting 1 -5.0
2017-Mar-28 02:32 135 0 gusting 1 -5.0
2017-Mar-28 02:27 135 0 gusting 1 -5.6
2017-Mar-28 02:22 158 0 gusting 1 -5.6
2017-Mar-28 02:17 180 0 gusting 2 -5.6
2017-Mar-28 02:12 180 0 gusting 2 -5.6
2017-Mar-28 02:07 158 0 gusting 2 -5.6
2017-Mar-28 02:02 180 -5.6
2017-Mar-28 01:57 158 0 gusting 1 -5.0
2017-Mar-28 01:52 158 0 gusting 1 -5.0
2017-Mar-28 01:47 158 0 gusting 1 -5.0
2017-Mar-28 01:42 180 0 gusting 1 -5.0
2017-Mar-28 01:37 180 0 gusting 1 -5.0
2017-Mar-28 01:32 180 -5.0
2017-Mar-28 01:27 180 -5.0
2017-Mar-28 01:22 158 -5.0
2017-Mar-28 01:17 180 0 gusting 1 -5.0
2017-Mar-28 01:12 158 0 gusting 1 -5.0
2017-Mar-28 01:07 180 0 gusting 1 -5.0
2017-Mar-28 01:02 158 0 gusting 1 -5.0
2017-Mar-28 00:57 158 0 gusting 1 -5.0
2017-Mar-28 00:52 180 0 gusting 1 -5.0
2017-Mar-28 00:47 180 0 gusting 1 -4.4
2017-Mar-28 00:42 158 -5.0
2017-Mar-28 00:37 180 -4.4
2017-Mar-28 00:32 180 -4.4
2017-Mar-28 00:27 158 -4.4
2017-Mar-28 00:22 203 -4.4
2017-Mar-28 00:17 158 0 gusting 2 -4.4
2017-Mar-28 00:12 180 0 gusting 2 -4.4
2017-Mar-28 00:07 203 0 gusting 1 -3.9
2017-Mar-28 00:02 180 0 gusting 2 -3.9
2017-Mar-27 23:57 158 0 gusting 2 -3.9
2017-Mar-27 23:52 203 0 gusting 1 -3.9
2017-Mar-27 23:47 158 0 gusting 2 -3.9
2017-Mar-27 23:42 180 0 gusting 3 -3.9
2017-Mar-27 23:37 180 0 gusting 3 -3.9
2017-Mar-27 23:32 180 0 gusting 3 -3.9
2017-Mar-27 23:27 158 0 gusting 2 -3.3
2017-Mar-27 23:22 180 0 gusting 2 -3.3
2017-Mar-27 23:17 248 0 gusting 2 -3.3
2017-Mar-27 23:12 180 1 gusting 3 -3.3
2017-Mar-27 23:07 203 1 gusting 3 -3.3
2017-Mar-27 23:02 180 1 gusting 3 -3.3
2017-Mar-27 22:57 203 1 gusting 2 -3.3
2017-Mar-27 22:52 180 1 gusting 4 -3.3
2017-Mar-27 22:47 293 1 gusting 4 -3.3
2017-Mar-27 22:42 225 2 gusting 3 -3.3
2017-Mar-27 22:37 180 1 gusting 3 -3.3
2017-Mar-27 22:32 180 1 gusting 3 -2.8
2017-Mar-27 22:27 090 1 gusting 3 -2.8
2017-Mar-27 22:22 180 1 gusting 3 -2.8
2017-Mar-27 22:17 180 2 gusting 3 -2.8
2017-Mar-27 22:12 180 1 gusting 3 -2.8
2017-Mar-27 22:07 203 1 gusting 3 -2.8
2017-Mar-27 22:02 180 1 gusting 3 -2.2
2017-Mar-27 21:57 180 1 gusting 3 -2.2
2017-Mar-27 21:52 158 1 gusting 3 -2.2
2017-Mar-27 21:47 158 1 gusting 3 -2.2
2017-Mar-27 21:42 180 1 gusting 2 -2.2
2017-Mar-27 21:37 180 1 gusting 2 -2.2
2017-Mar-27 21:32 203 1 gusting 2 -2.2
2017-Mar-27 21:27 180 1 gusting 3 -2.2
2017-Mar-27 21:22 180 1 gusting 4 -2.2
2017-Mar-27 21:17 158 1 gusting 4 -1.7
2017-Mar-27 21:12 180 1 gusting 4 -1.7
2017-Mar-27 21:07 158 1 gusting 2 -1.7
2017-Mar-27 20:57 225 1 gusting 4 -1.7
2017-Mar-27 20:52 158 1 gusting 4 -1.7
2017-Mar-27 20:47 135 1 gusting 4 -1.7
2017-Mar-27 20:42 180 1 gusting 3 -1.7
2017-Mar-27 20:37 225 1 gusting 4 -1.7
2017-Mar-27 20:32 180 1 gusting 6 -1.7
2017-Mar-27 20:27 203 2 gusting 7 -1.7
2017-Mar-27 20:22 203 3 gusting 7 -1.7
2017-Mar-27 20:17 225 3 gusting 7 -1.7
2017-Mar-27 20:12 225 2 gusting 6 -1.7
2017-Mar-27 20:07 248 2 gusting 8 -1.7
2017-Mar-27 20:02 180 2 gusting 8 -1.7
2017-Mar-27 19:57 203 2 gusting 8 -1.1
2017-Mar-27 19:52 180 2 gusting 4 -1.7
2017-Mar-27 19:47 248 2 gusting 4 -1.1
2017-Mar-27 19:42 248 2 gusting 4 -1.1
2017-Mar-27 19:37 203 2 gusting 4 -1.1
2017-Mar-27 19:32 248 1 gusting 4 -1.1
2017-Mar-27 19:27 225 1 gusting 5 -1.1
2017-Mar-27 19:22 248 1 gusting 5 -0.6
2017-Mar-27 19:17 225 1 gusting 4 -0.6
2017-Mar-27 19:12 203 2 gusting 4 -0.6
2017-Mar-27 19:07 248 1 gusting 5 -0.6
2017-Mar-27 19:02 248 2 gusting 5 -0.6
2017-Mar-27 18:57 248 2 gusting 4 -0.6
2017-Mar-27 18:52 270 2 gusting 5 -0.6
2017-Mar-27 18:47 248 2 gusting 5 -0.6
2017-Mar-27 18:42 225 1 gusting 4 -0.6
2017-Mar-27 18:37 248 2 gusting 7 -0.6
2017-Mar-27 18:32 225 2 gusting 7 -0.6
2017-Mar-27 18:27 248 3 gusting 7 -0.6
2017-Mar-27 18:22 225 2 gusting 5 -0.6
2017-Mar-27 18:17 225 2 gusting 6 -0.6
2017-Mar-27 18:12 270 2 gusting 6 -0.6
2017-Mar-27 18:07 293 2 gusting 6 -0.0
2017-Mar-27 18:02 270 2 gusting 4 -0.0
2017-Mar-27 17:57 270 1 gusting 4 -0.0
2017-Mar-27 17:52 315 1 gusting 6 -0.0
2017-Mar-27 17:47 315 1 gusting 6 -0.0
2017-Mar-27 17:42 270 1 gusting 6 -0.0
2017-Mar-27 17:37 225 1 gusting 1 -0.0
2017-Mar-27 17:32 293 -0.0
2017-Mar-27 17:27 270 -0.0
2017-Mar-27 17:22 315 -0.0
2017-Mar-27 17:17 315 -0.0
2017-Mar-27 17:12 225 -0.0
2017-Mar-27 17:07 293 -0.0
2017-Mar-27 17:02 248 -0.0
2017-Mar-27 16:57 270 0.6
2017-Mar-27 16:52 293 0.6
2017-Mar-27 16:47 293 0.6
2017-Mar-27 16:42 315 -0.0
2017-Mar-27 16:37 293 0.6
2017-Mar-27 16:32 293 0.6
2017-Mar-27 16:27 270 0.6
2017-Mar-27 16:22 315 0.6
2017-Mar-27 16:17 315 0.6
2017-Mar-27 16:12 315 0.6
2017-Mar-27 16:07 315 0.6
2017-Mar-27 16:02 315 0.6
2017-Mar-27 15:57 315 0.6
2017-Mar-27 15:52 270 0.6
2017-Mar-27 15:47 270 0.6
2017-Mar-27 15:42 270 1.1
2017-Mar-27 15:37 270 0.6
2017-Mar-27 15:32 270 0.6
2017-Mar-27 15:27 248 1.1
2017-Mar-27 15:22 248 1.1
2017-Mar-27 15:17 225 1.1
2017-Mar-27 15:12 225 1.1
2017-Mar-27 15:07 225 1.1
2017-Mar-27 15:02 225 1.1
2017-Mar-27 14:57 225 1.1
2017-Mar-27 14:47 225 1.1
2017-Mar-27 14:42 225 1.1
2017-Mar-27 14:37 135 1.1
2017-Mar-27 14:32 135 1.1
2017-Mar-27 14:27 180 1.7
2017-Mar-27 14:22 158 0 gusting 4 1.7
2017-Mar-27 14:17 158 1 gusting 4 1.7
2017-Mar-27 14:12 135 1 gusting 4 1.7
2017-Mar-27 14:07 158 1 gusting 5 2.2
2017-Mar-27 14:02 135 2 gusting 8 2.2
2017-Mar-27 13:57 135 3 gusting 8 2.2
2017-Mar-27 13:52 158 4 gusting 8 2.2
2017-Mar-27 13:47 180 4 gusting 6 2.8
2017-Mar-27 13:42 180 5 gusting 8 2.8
2017-Mar-27 13:37 158 5 gusting 10 2.8
2017-Mar-27 13:32 158 5 gusting 10 2.8
2017-Mar-27 13:27 203 5 gusting 10 3.3
2017-Mar-27 13:22 180 5 gusting 9 3.3
2017-Mar-27 13:17 158 3 gusting 9 3.3
2017-Mar-27 13:12 113 4 gusting 9 3.3
2017-Mar-27 13:07 180 5 gusting 9 3.9
2017-Mar-27 13:02 158 5 gusting 9 3.9
2017-Mar-27 12:57 180 4 gusting 8 3.9
2017-Mar-27 12:52 203 4 gusting 12 3.9
2017-Mar-27 12:47 180 3 gusting 12 3.9
2017-Mar-27 12:42 180 4 gusting 12 4.4
2017-Mar-27 12:37 180 5 gusting 12 4.4
2017-Mar-27 12:32 158 5 gusting 11 4.4
2017-Mar-27 12:27 203 5 gusting 16 4.4
2017-Mar-27 12:22 180 6 gusting 16 4.4
2017-Mar-27 12:17 158 7 gusting 16 4.4
2017-Mar-27 12:12 113 7 gusting 11 4.4
2017-Mar-27 12:07 113 7 gusting 10 4.4
2017-Mar-27 12:02 158 6 gusting 12 4.4
2017-Mar-27 11:57 158 6 gusting 12 4.4
2017-Mar-27 11:52 225 6 gusting 12 4.4
2017-Mar-27 11:47 180 6 gusting 11 4.4
2017-Mar-27 11:42 135 6 gusting 11 4.4
2017-Mar-27 11:37 158 6 gusting 12 4.4
2017-Mar-27 11:32 180 6 gusting 12 4.4
2017-Mar-27 11:27 158 7 gusting 12 4.4
2017-Mar-27 11:22 158 6 gusting 11 4.4
2017-Mar-27 11:17 135 6 gusting 11 4.4
2017-Mar-27 11:12 135 6 gusting 11 4.4
2017-Mar-27 11:07 158 6 gusting 11 4.4
2017-Mar-27 11:02 180 6 gusting 12 4.4
2017-Mar-27 10:57 135 6 gusting 12 4.4
2017-Mar-27 10:52 135 6 gusting 12 4.4
2017-Mar-27 10:47 180 8 gusting 10 4.4
2017-Mar-27 10:42 180 6 gusting 10 4.4
2017-Mar-27 10:37 180 5 gusting 10 4.4
2017-Mar-27 10:32 180 6 gusting 10 3.9
2017-Mar-27 10:27 158 6 gusting 10 3.9
2017-Mar-27 10:22 203 6 gusting 11 3.9
2017-Mar-27 10:17 180 7 gusting 14 3.9
2017-Mar-27 10:12 180 8 gusting 14 3.9
2017-Mar-27 10:07 180 7 gusting 14 4.4
2017-Mar-27 10:02 158 6 gusting 11 4.4
2017-Mar-27 09:57 158 6 gusting 11 4.4
2017-Mar-27 09:52 135 6 gusting 10 4.4
2017-Mar-27 09:47 158 6 gusting 10 4.4
2017-Mar-27 09:42 135 6 gusting 12 4.4
2017-Mar-27 09:37 135 7 gusting 12 4.4
2017-Mar-27 09:32 158 5 gusting 12 4.4
2017-Mar-27 09:27 203 5 gusting 7 4.4
2017-Mar-27 09:22 180 5 gusting 7 4.4
2017-Mar-27 09:17 158 6 gusting 7 3.9
2017-Mar-27 09:12 135 5 gusting 6 3.9
2017-Mar-27 09:07 158 5 gusting 8 3.9
2017-Mar-27 09:02 158 5 gusting 9 3.9
2017-Mar-27 08:57 180 6 gusting 9 3.9
2017-Mar-27 08:52 248 5 gusting 9 3.9
2017-Mar-27 08:47 180 6 gusting 8 3.9
2017-Mar-27 08:42 180 6 gusting 8 3.9
2017-Mar-27 08:37 180 6 gusting 9 3.9
2017-Mar-27 08:32 135 6 gusting 9 3.3
2017-Mar-27 08:27 203 5 gusting 11 3.3
2017-Mar-27 08:22 180 5 gusting 11 3.3
2017-Mar-27 08:17 248 5 gusting 11 3.3
2017-Mar-27 08:12 293 5 gusting 9 3.3
2017-Mar-27 08:07 248 4 gusting 6 2.8
2017-Mar-27 08:02 068 4 gusting 12 2.8
2017-Mar-27 07:57 203 5 gusting 12 2.8
2017-Mar-27 07:52 225 4 gusting 12 2.8
2017-Mar-27 07:47 2.8
2017-Mar-27 07:42 158 6 gusting 11 2.8
2017-Mar-27 07:37 180 6 gusting 9 2.2
2017-Mar-27 07:32 158 6 gusting 8 2.2
2017-Mar-27 07:27 158 6 gusting 13 2.2
2017-Mar-27 07:22 180 6 gusting 13 2.2
2017-Mar-27 07:17 158 7 gusting 13 2.2
2017-Mar-27 07:12 180 7 gusting 10 2.2
2017-Mar-27 07:07 180 6 gusting 11 1.7
2017-Mar-27 07:02 158 6 gusting 11 1.7
2017-Mar-27 06:57 180 6 gusting 7 1.7
2017-Mar-27 06:52 203 6 gusting 9 1.7
2017-Mar-27 06:47 248 5 gusting 9 1.7
2017-Mar-27 06:42 203 5 gusting 7 1.7
2017-Mar-27 06:37 158 5 gusting 7 1.7
2017-Mar-27 06:32 225 6 gusting 7 1.1
2017-Mar-27 06:27 180 6 gusting 7 1.1
2017-Mar-27 06:22 180 5 gusting 10 1.1
2017-Mar-27 06:17 113 6 gusting 10 1.1
2017-Mar-27 06:12 023 6 gusting 10 1.1
2017-Mar-27 06:07 023 6 gusting 11 1.1
2017-Mar-27 06:02 180 6 gusting 11 1.1
2017-Mar-27 05:57 225 6 gusting 8 1.1
2017-Mar-27 05:52 180 6 gusting 13 1.1
2017-Mar-27 05:47 203 5 gusting 13 1.1
2017-Mar-27 05:42 180 5 gusting 13 1.1
2017-Mar-27 05:37 203 6 gusting 11 1.1
2017-Mar-27 05:32 158 5 gusting 11 1.1
2017-Mar-27 05:27 225 5 gusting 9 1.1
2017-Mar-27 05:22 225 4 gusting 7 1.1
2017-Mar-27 05:17 248 5 gusting 8 1.1
2017-Mar-27 05:12 090 5 gusting 8 1.1
2017-Mar-27 05:07 180 5 gusting 8 1.1
2017-Mar-27 05:02 203 6 gusting 13 1.1
2017-Mar-27 04:57 203 6 gusting 13 1.1
2017-Mar-27 04:52 180 6 gusting 13 1.1
2017-Mar-27 04:47 225 6 gusting 11 1.1
2017-Mar-27 04:42 158 5 gusting 11 1.1
2017-Mar-27 04:37 225 6 gusting 17 1.1
2017-Mar-27 04:32 180 6 gusting 17 1.1
2017-Mar-27 04:27 158 6 gusting 17 1.1
2017-Mar-27 04:22 180 6 gusting 10 1.1
2017-Mar-27 04:17 180 6 gusting 10 1.1
2017-Mar-27 04:12 225 6 gusting 8 1.1
2017-Mar-27 04:07 293 6 gusting 12 1.1
2017-Mar-27 04:02 180 6 gusting 12 1.1
2017-Mar-27 03:57 248 7 gusting 12 1.1
2017-Mar-27 03:52 180 6 gusting 10 1.1
2017-Mar-27 03:47 203 6 gusting 12 1.1
2017-Mar-27 03:42 158 6 gusting 12 1.1
2017-Mar-27 03:37 248 6 gusting 12 1.1
2017-Mar-27 03:32 180 6 gusting 9 1.1
2017-Mar-27 03:27 203 6 gusting 10 1.1
2017-Mar-27 03:22 203 6 gusting 10 1.1
2017-Mar-27 03:17 315 6 gusting 8 1.1
2017-Mar-27 03:12 293 6 gusting 15 1.1
2017-Mar-27 03:07 225 6 gusting 15 1.7
2017-Mar-27 03:02 225 6 gusting 15 1.7
2017-Mar-27 02:57 158 6 gusting 13 1.7
2017-Mar-27 02:52 180 6 gusting 13 1.7
2017-Mar-27 02:47 158 6 gusting 13 1.7
2017-Mar-27 02:42 180 6 gusting 13 1.7
2017-Mar-27 02:37 248 6 gusting 13 1.1
2017-Mar-27 02:32 225 6 gusting 13 1.1
2017-Mar-27 02:27 225 6 gusting 14 1.1
2017-Mar-27 02:22 248 6 gusting 14 1.1
2017-Mar-27 02:17 180 6 gusting 11 1.1
2017-Mar-27 02:12 180 6 gusting 17 1.1
2017-Mar-27 02:07 180 7 gusting 17 1.1
2017-Mar-27 02:02 180 7 gusting 13 1.1
2017-Mar-27 01:57 158 6 gusting 13 1.1
2017-Mar-27 01:52 180 6 gusting 9 1.1
2017-Mar-27 01:47 203 6 gusting 9 1.1
2017-Mar-27 01:42 180 6 gusting 11 1.1
2017-Mar-27 01:37 180 5 gusting 13 1.1
2017-Mar-27 01:32 203 6 gusting 13 1.1
2017-Mar-27 01:27 180 6 gusting 13 1.1
2017-Mar-27 01:22 203 6 gusting 13 1.1
2017-Mar-27 01:17 180 6 gusting 13 1.1
2017-Mar-27 01:12 203 6 gusting 9 1.1
2017-Mar-27 01:07 203 5 gusting 13 1.1
2017-Mar-27 01:02 158 5 gusting 13 1.1
2017-Mar-27 00:57 248 6 gusting 13 1.1
2017-Mar-27 00:52 248 6 gusting 13 1.1
2017-Mar-27 00:47 180 6 gusting 11 1.1
2017-Mar-27 00:42 225 6 gusting 11 1.1
2017-Mar-27 00:37 158 6 gusting 10 1.1
2017-Mar-27 00:32 180 6 gusting 12 1.7
2017-Mar-27 00:27 180 6 gusting 16 1.7
2017-Mar-27 00:22 225 6 gusting 16 1.7
2017-Mar-27 00:17 203 6 gusting 16 1.7
2017-Mar-27 00:12 225 6 gusting 16 1.7
2017-Mar-27 00:07 225 6 gusting 16 1.7
2017-Mar-27 00:02 225 6 gusting 9 1.7
2017-Mar-26 23:57 248 6 gusting 9 1.7
2017-Mar-26 23:52 180 6 gusting 9 1.7
2017-Mar-26 23:47 158 6 gusting 13 1.7
2017-Mar-26 23:42 203 6 gusting 13 1.7
2017-Mar-26 23:37 248 6 gusting 11 1.7
2017-Mar-26 23:32 180 6 gusting 11 1.7
2017-Mar-26 23:27 180 6 gusting 11 1.7
2017-Mar-26 23:22 180 6 gusting 17 1.7
2017-Mar-26 23:17 180 6 gusting 17 1.7
2017-Mar-26 23:12 203 6 gusting 13 1.7
2017-Mar-26 23:07 203 6 gusting 13 1.7
2017-Mar-26 23:02 225 6 gusting 8 1.7
2017-Mar-26 22:57 180 5 gusting 9 2.2
2017-Mar-26 22:52 135 6 gusting 11 2.2
2017-Mar-26 22:47 180 6 gusting 19 2.2
2017-Mar-26 22:42 225 6 gusting 19 2.2
2017-Mar-26 22:37 158 7 gusting 15 2.2
2017-Mar-26 22:32 180 7 gusting 13 2.2
2017-Mar-26 22:27 203 7 gusting 14 2.2
2017-Mar-26 22:22 203 7 gusting 14 2.2
2017-Mar-26 22:17 180 8 gusting 14 2.2
2017-Mar-26 22:12 180 7 gusting 12 2.2
2017-Mar-26 22:07 180 7 gusting 16 2.2
2017-Mar-26 22:02 225 8 gusting 16 2.2
2017-Mar-26 21:57 180 9 gusting 16 2.8
2017-Mar-26 21:52 338 8 gusting 16 2.2
2017-Mar-26 21:47 225 8 gusting 16 2.2
2017-Mar-26 21:42 180 7 gusting 16 2.2
2017-Mar-26 21:37 225 7 gusting 14 2.8
2017-Mar-26 21:32 180 6 gusting 14 2.8
2017-Mar-26 21:27 180 7 gusting 13 2.8
2017-Mar-26 21:22 225 8 gusting 13 2.8
2017-Mar-26 21:17 248 8 gusting 13 2.8
2017-Mar-26 21:12 180 8 gusting 21 2.8
2017-Mar-26 21:07 158 9 gusting 21 2.8
2017-Mar-26 20:57 180 8 gusting 18 2.8
2017-Mar-26 20:52 180 7 gusting 18 2.8
2017-Mar-26 20:47 180 6 gusting 18 2.8
2017-Mar-26 20:42 158 6 gusting 13 2.8
2017-Mar-26 20:37 180 6 gusting 13 2.8
2017-Mar-26 20:32 180 6 gusting 13 2.8
2017-Mar-26 20:27 225 7 gusting 12 2.8
2017-Mar-26 20:22 180 7 gusting 12 2.8
2017-Mar-26 20:17 180 7 gusting 12 2.8
2017-Mar-26 20:12 203 6 gusting 13 2.8
2017-Mar-26 20:07 135 5 gusting 14 2.8
2017-Mar-26 20:02 248 6 gusting 14 2.8
2017-Mar-26 19:57 203 7 gusting 11 3.3
2017-Mar-26 19:52 180 7 gusting 13 3.3
2017-Mar-26 19:47 203 7 gusting 13 2.8
2017-Mar-26 19:42 158 7 gusting 13 3.3
2017-Mar-26 19:37 180 7 gusting 17 3.3
2017-Mar-26 19:32 135 7 gusting 17 3.3
2017-Mar-26 19:27 180 7 gusting 17 3.3
2017-Mar-26 19:22 180 7 gusting 13 3.3
2017-Mar-26 19:17 180 7 gusting 11 3.3
2017-Mar-26 19:12 180 6 gusting 11 3.3
2017-Mar-26 19:07 158 6 gusting 12 3.3
2017-Mar-26 19:02 180 6 gusting 12 3.3
2017-Mar-26 18:57 225 7 gusting 12 3.3
2017-Mar-26 18:52 180 7 gusting 11 3.3
2017-Mar-26 18:47 248 6 gusting 17 3.3
2017-Mar-26 18:42 180 6 gusting 17 3.3
2017-Mar-26 18:37 180 7 gusting 17 3.3
2017-Mar-26 18:32 180 7 gusting 13 3.3
2017-Mar-26 18:27 203 7 gusting 11 3.3
2017-Mar-26 18:22 180 6 gusting 11 3.9
2017-Mar-26 18:17 203 8 gusting 11 3.3
2017-Mar-26 18:12 180 9 gusting 14 3.3
2017-Mar-26 18:07 225 9 gusting 19 3.3
2017-Mar-26 18:02 203 9 gusting 19 3.3
2017-Mar-26 17:57 180 9 gusting 19 3.3
2017-Mar-26 17:52 338 9 gusting 18 3.3
2017-Mar-26 17:47 113 9 gusting 18 3.3
2017-Mar-26 17:42 270 9 gusting 16 3.3
2017-Mar-26 17:37 203 8 gusting 16 3.3
2017-Mar-26 17:32 180 8 gusting 16 3.3
2017-Mar-26 17:27 180 8 gusting 12 3.3
2017-Mar-26 17:22 315 8 gusting 12 3.3
2017-Mar-26 17:17 158 7 gusting 11 3.3
2017-Mar-26 17:12 158 7 gusting 13 3.3
2017-Mar-26 17:07 180 6 gusting 13 3.3
2017-Mar-26 17:02 158 6 gusting 13 3.3